Regional Weather Roundup
Issued by NWS Kansas City/Pleasant Hill, MO

Home | Current Version | Previous Version | Text Only | Print | Product List | Glossary On
Versions: 1 2 3 4 5 6 7 8 9 10 11 12 13 14 15 16 17 18 19 20 21 22 23 24 25 26 27 28 29 30 31 32 33 34 35 36 37 38 39 40 41 42 43 44 45 46 47 48 49 50
000
ASUS43 KEAX 292211
RWREAX

WEATHER ROUNDUP FOR EASTERN KANSAS AND NORTHWEST MISSOURI
NATIONAL WEATHER SERVICE KANSAS CITY/PLEASANT HILL MO
500 PM CDT WED OCT 29 2014

KSZ040-057-103>105-MOZ028-029-037-043-292300-
...KANSAS CITY METROPOLITAN AREA...

CITY           SKY/WX    TMP DP  RH WIND       PRES   REMARKS
K.C. INTL      SUNNY     60  32  34 CALM      30.15F
K.C. DOWNTOWN  SUNNY     62  29  28 CALM      30.15F
LEES SUMMIT    SUNNY     61  31  32 CALM      30.16F
OLATHE - IXD   SUNNY     61  32  33 CALM      30.16F
OLATHE - OJC   SUNNY     61  32  33 S5        30.14F
LAWRENCE       SUNNY     61  34  36 S6        30.15F

$$

MOZ001>008-011>017-020>025-030>033-038>040-044>046-053-054-292300-
...NORTHERN AND CENTRAL MISSOURI...

CITY           SKY/WX    TMP DP  RH WIND       PRES   REMARKS
ST. JOSEPH     SUNNY     60  30  32 CALM      30.14F
MOSBY          CLEAR     59  30  33 CALM      30.15F
WHITEMAN AFB   SUNNY     59  32  36 CALM      30.16S
CLINTON        SUNNY     61  34  36 CALM      30.17S HAZE
SEDALIA        SUNNY     59  31  34 W5        30.17F
WARSAW         NOT AVBL
MARSHALL       SUNNY     61  32  33 CALM      30.17F
CHILLICOTHE      N/A     58  32  37 CALM      30.16F
MOBERLY        SUNNY     57  32  38 NW9       30.17S
KIRKSVILLE     SUNNY     55  36  48 W6        30.16S

$$

MOZ041-047>049-056>058-063>065-088>090-097-292300-
...EASTERN AND SOUTHERN MISSOURI...

CITY           SKY/WX    TMP DP  RH WIND       PRES   REMARKS
ST. LOUIS INTL MOSUNNY   58  35  42 NW10      30.15S
SPIRIT OF STL  SUNNY     57  35  43 NW9       30.15S
COLUMBIA       SUNNY     58  33  39 W7        30.16F
JEFFERSON CITY SUNNY     59  30  33 NW8       30.16F
MEXICO         SUNNY     57  39  51 NW7       30.16S
HANNIBAL       SUNNY     55  30  38 N7        30.15F
ROLLA          SUNNY     57  29  34 NW9       30.15S
LEBANON        SUNNY     61  28  29 W6        30.16F
OSAGE BEACH    SUNNY     61  28  29 NW3       30.16F
SPRINGFIELD    SUNNY     62  33  33 NW7       30.16F
BRANSON        SUNNY     66  34  30 W6        30.17F
NEVADA         SUNNY     63  37  39 SE5       30.17F
JOPLIN         SUNNY     66  36  32 CALM      30.17F
WEST PLAINS    SUNNY     64  30  27 VRB7      30.15F

$$

IAZ060-094-KSZ022-034>040-054-083-096-NEZ052-066-093-292300-
...KANSAS...SOUTHEAST NEBRASKA AND IOWA...

CITY           SKY/WX    TMP DP  RH WIND       PRES   REMARKS
TOPEKA         SUNNY     63  33  32 SE9       30.14F
MANHATTAN      SUNNY     66  34  30 SE10      30.10F
EMPORIA        SUNNY     65  34  31 S6        30.12F
CHANUTE        SUNNY     65  37  35 S6        30.15F
WICHITA        SUNNY     71  30  21 S16       30.10F
OMAHA          SUNNY     56  29  35 S6        30.12F
LINCOLN        SUNNY     59  32  36 S10       30.11F
FALLS CITY     SUNNY     59  32  36 SE6       30.12F
LAMONI         SUNNY     53  34  48 S3        30.13F
DES MOINES     SUNNY     54  33  45 CALM      30.13F

$$




USA.gov is the U.S. government's official web portal to all federal, state and local government web resources and services.